Weather History for Muskegon, MI

Change the Weather History Date:

Monday, March 3, 2014

  Actual Average Record
Temperature  
Mean Temperature 5 °F 31 °F  
Max Temperature 15 °F 38 °F 69 °F (1983)
Min Temperature -5 °F 24 °F -10 °F (1943)
Degree Days  
Heating Degree Days 60 34  
Month to date heating degree days 165 104  
Since 1 July heating degree days 5305 4836  
Cooling Degree Days 0 0  
Month to date cooling degree days 0 0  
Year to date cooling degree days 0 0  
Moisture  
Dew Point -5 °F    
Average Humidity 58    
Maximum Humidity 75    
Minimum Humidity 40    
Precipitation  
Precipitation 0.00 in 0.07 in 1.01 in (1941)
Month to date precipitation 0.21 0.22  
Year to date precipitation 5.34 4.08  
Snow  
Snow 0.00 in 0.40 in 4.60 in (2007)
Month to date snowfall 2.8 1.3  
Since 1 July snowfall 126.4 83.7  
Snow Depth 21.00 in    
Sea Level Pressure  
Sea Level Pressure 30.49 in    
Wind  
Wind Speed 5 mph (SE)    
Max Wind Speed 15 mph    
Max Gust Speed 21 mph    
Visibility 10 miles    
Events      
T = Trace of Precipitation, MM = Missing Value Source: NWS Daily Summary

Daily Weather History Graph

Daily Weather History Graph

Search for Another Location

Airport:

Trip Planner

Search our weather history database for the weather conditions in past years. The results will help you decide how hot, cold, wet, or windy it might be!

Date:

Astronomy

Mar. 03, 2014 Rise Set
Actual Time 7:17 AM EST 6:36 PM EST
Civil Twilight 6:49 AM EST 7:05 PM EST
Nautical Twilight 6:16 AM EST 7:38 PM EST
Astronomical Twilight 5:43 AM EST 8:11 PM EST
Moon 8:20 AM EST (3/3) 9:45 PM EST (3/3)
Length of Visible Light 12h 15m
Length of Day
11h 18m
Waxing Crescent, 8% of the Moon is Illuminated
Mar 3
Waxing Crescent
Mar 8
First Quarter
Mar 16
Full
Mar 23
Last Quarter
Mar 30
New

Hourly Weather History & Observations

Time (EST) Temp. Windchill Dew Point Humidity Pressure Visibility Wind Dir Wind Speed Gust Speed Precip Events Conditions
12:55 AM 1.0 °F -8.7 °F -9.0 °F 63% 30.45 in 10.0 mi North 4.6 mph - N/A   Clear
1:55 AM 3.0 °F -8.0 °F -7.1 °F 63% 30.45 in 10.0 mi North 5.8 mph - N/A   Clear
2:55 AM 3.9 °F - -6.0 °F 64% 30.43 in 10.0 mi Calm Calm - N/A   Clear
3:55 AM 3.9 °F -11.3 °F -5.1 °F 66% 30.45 in 10.0 mi North 10.4 mph - N/A   Clear
4:55 AM -0.0 °F -15.3 °F -9.9 °F 63% 30.47 in 10.0 mi NNE 9.2 mph - N/A   Clear
5:55 AM -2.0 °F -15.4 °F -11.0 °F 66% 30.51 in 10.0 mi NE 6.9 mph - N/A   Clear
6:55 AM -4.0 °F -14.6 °F -11.9 °F 69% 30.51 in 10.0 mi ENE 4.6 mph - N/A   Clear
7:55 AM -5.1 °F - -11.0 °F 76% 30.54 in 10.0 mi Calm Calm - N/A   Partly Cloudy
8:55 AM -2.0 °F -10.1 °F -9.9 °F 69% 30.55 in 10.0 mi ESE 3.5 mph - N/A   Partly Cloudy
9:55 AM 5.0 °F -5.6 °F -7.1 °F 58% 30.55 in 10.0 mi ENE 5.8 mph - N/A   Partly Cloudy
10:55 AM 7.0 °F -3.3 °F -8.0 °F 51% 30.55 in 10.0 mi SE 5.8 mph - N/A   Partly Cloudy
11:55 AM 8.1 °F -0.5 °F -6.0 °F 53% 30.54 in 10.0 mi SE 4.6 mph - N/A   Partly Cloudy
12:55 PM 14.0 °F - -7.1 °F 39% 30.53 in 10.0 mi Calm Calm - N/A   Scattered Clouds
1:55 PM 10.0 °F -1.9 °F -5.1 °F 51% 30.53 in 10.0 mi SW 8.1 mph - N/A   Scattered Clouds
2:55 PM 10.9 °F -0.8 °F -2.9 °F 54% 30.52 in 10.0 mi WSW 8.1 mph - N/A   Scattered Clouds
3:55 PM 10.0 °F 0.4 °F -2.9 °F 56% 30.52 in 10.0 mi SSW 5.8 mph - N/A   Partly Cloudy
4:55 PM 12.9 °F - -0.9 °F 54% 30.51 in 10.0 mi Calm Calm - N/A   Scattered Clouds
5:55 PM 9.0 °F -3.2 °F -0.9 °F 64% 30.52 in 10.0 mi SW 8.1 mph - N/A   Scattered Clouds
6:55 PM 9.0 °F -0.9 °F -0.9 °F 64% 30.49 in 10.0 mi SSE 5.8 mph - N/A   Scattered Clouds
7:55 PM 9.0 °F -0.9 °F -0.9 °F 64% 30.47 in 10.0 mi SSE 5.8 mph - N/A   Partly Cloudy
8:55 PM 9.0 °F 0.6 °F -0.0 °F 67% 30.45 in 10.0 mi SE 4.6 mph - N/A   Clear
9:55 PM 10.0 °F 3.6 °F -0.0 °F 64% 30.44 in 10.0 mi South 3.5 mph - N/A   Clear
10:55 PM 10.9 °F 0.2 °F -0.0 °F 61% 30.43 in 10.0 mi SSE 6.9 mph - N/A   Clear
11:55 PM 10.9 °F 1.4 °F -0.0 °F 61% 30.41 in 10.0 mi SSE 5.8 mph - N/A   Mostly Cloudy